KT4ATL Weather Reports


time (UTC)temp
F
wind
direction
speed
knots
gust
knots
rain 1hr
in
rain 24hr
in
rain mn
in
humidity
%
barometer
mb
20260510234519 80 0.0 0.0 0.00 0.00 0.00 49 1014.2
20260510233518 80 0.0 0.0 0.00 0.00 0.00 48 1014.1
20260510232521 82 0.0 0.0 0.00 0.00 0.00 44 1014.0
20260510231518 84 0.0 0.0 0.00 0.00 0.00 43 1014.0
20260510230518 86 26 0.0 0.9 0.00 0.00 0.00 42 1013.9
20260510225518 85 318 0.0 1.7 0.00 0.00 0.00 41 1013.9
20260510224519 85 33 0.0 2.6 0.00 0.00 0.00 43 1013.9
20260510223519 85 60 0.9 1.7 0.00 0.00 0.00 40 1013.9
20260510222519 85 303 0.9 2.6 0.00 0.00 0.00 42 1013.8
20260510221540 86 58 0.9 3.5 0.00 0.00 0.00 41 1013.8
20260510220517 85 48 0.9 2.6 0.00 0.00 0.00 43 1013.8
20260510215516 85 53 0.9 3.5 0.00 0.00 0.00 42 1013.8
20260510214520 84 36 0.9 2.6 0.00 0.00 0.00 42 1013.8
20260510213517 85 38 0.9 3.5 0.00 0.00 0.00 43 1013.8
20260510212519 85 287 1.7 4.3 0.00 0.00 0.00 43 1013.9
20260510211521 85 9 0.9 3.5 0.00 0.00 0.00 44 1014.0
20260510210541 84 19 1.7 3.5 0.00 0.00 0.00 44 1014.1
20260510205518 84 356 1.7 4.3 0.00 0.00 0.00 43 1014.0
20260510204518 84 278 0.9 2.6 0.00 0.00 0.00 43 1014.1
20260510203518 84 32 1.7 4.3 0.00 0.00 0.00 43 1014.2
20260510202518 85 35 1.7 3.5 0.00 0.00 0.00 44 1014.2
20260510201619 86 357 1.7 3.5 0.00 0.00 0.00 43 1014.2
20260510200518 87 39 1.7 5.2 0.00 0.00 0.00 42 1014.3
20260510195518 87 344 0.9 2.6 0.00 0.00 0.00 40 1014.3
20260510194519 88 26 0.9 3.5 0.00 0.00 0.00 38 1014.3
20260510193539 87 30 0.9 3.5 0.00 0.00 0.00 39 1014.4
20260510192519 85 354 0.9 4.3 0.00 0.00 0.00 42 1014.4
20260510191520 84 29 0.9 2.6 0.00 0.00 0.00 43 1014.4
20260510190520 85 305 1.7 3.5 0.00 0.00 0.00 41 1014.4
20260510185518 85 0 0.9 3.5 0.00 0.00 0.00 42 1014.5
20260510184520 84 33 0.9 2.6 0.00 0.00 0.00 40 1014.6
20260510183540 85 359 1.7 3.5 0.00 0.00 0.00 42 1014.7
20260510182517 85 28 0.9 4.3 0.00 0.00 0.00 40 1014.7
20260510181517 85 44 0.9 2.6 0.00 0.00 0.00 42 1014.9
20260510180518 84 28 0.9 2.6 0.00 0.00 0.00 43 1015.0
20260510175516 83 13 0.9 2.6 0.00 0.00 0.00 43 1015.2
20260510174518 83 18 0.9 3.5 0.00 0.00 0.00 43 1015.2
20260510173538 83 27 1.7 3.5 0.00 0.00 0.00 45 1015.3
20260510172518 83 61 1.7 5.2 0.00 0.00 0.00 43 1015.3
20260510171539 83 31 1.7 2.6 0.00 0.00 0.00 40 1015.3
20260510170519 83 55 0.9 2.6 0.00 0.00 0.00 40 1015.4
20260510165519 83 53 0.9 3.5 0.00 0.00 0.00 46 1015.5
20260510164517 83 41 0.9 2.6 0.00 0.00 0.00 40 1015.5
20260510163518 82 35 0.9 2.6 0.00 0.00 0.00 40 1015.5
20260510162520 81 56 0.9 2.6 0.00 0.00 0.00 47 1015.6
20260510161600 81 52 0.9 1.7 0.00 0.00 0.00 51 1015.6
20260510160558 81 30 0.9 3.5 0.00 0.00 0.00 52 1015.6
20260510155518 80 39 0.9 2.6 0.00 0.00 0.00 57 1015.6
20260510154517 80 52 0.9 4.3 0.00 0.00 0.00 53 1015.7
20260510153519 79 46 0.9 3.5 0.00 0.00 0.00 60 1015.9
20260510152519 79 71 0.9 1.7 0.00 0.00 0.00 61 1015.9
20260510151537 79 79 0.9 3.5 0.00 0.00 0.00 63 1016.0
20260510150517 78 75 0.9 1.7 0.00 0.00 0.00 67 1016.1
20260510145518 78 126 0.9 2.6 0.00 0.00 0.00 66 1016.1
20260510144538 76 61 0.9 2.6 0.00 0.00 0.00 70 1016.2
20260510143538 75 152 0.9 2.6 0.00 0.00 0.00 71 1016.4
20260510142518 75 93 0.9 3.5 0.00 0.00 0.00 73 1016.4
20260510141520 74 112 0.9 2.6 0.00 0.00 0.00 76 1016.3
20260510140518 73 107 0.0 4.3 0.00 0.00 0.00 77 1016.4
20260510135517 73 111 0.9 1.7 0.00 0.00 0.00 75 1016.4
20260510134520 71 115 0.0 1.7 0.00 0.00 0.00 78 1016.5
20260510133520 71 122 0.0 1.7 0.00 0.00 0.00 78 1016.5
20260510132519 69 103 0.0 1.7 0.00 0.00 0.00 81 1016.5
20260510131519 67 0.0 0.0 0.00 0.00 0.00 90 1016.4
20260510130516 66 194 0.0 0.9 0.00 0.00 0.00 98 1016.4
20260510125519 65 0.0 0.0 0.00 0.00 0.00 99 1016.3
20260510124540 63 0.0 0.0 0.00 0.00 0.00 99 1016.2
20260510123518 61 0.0 0.0 0.00 0.00 0.00 99 1016.2
20260510122517 58 0.0 0.0 0.00 0.00 0.00 99 1016.0
20260510121522 56 0.0 0.0 0.00 0.00 0.00 98 1016.0
20260510120542 54 0.0 0.0 0.00 0.00 0.00 98 1015.9
20260510115542 52 0.0 0.0 0.00 0.00 0.00 98 1015.7
20260510114523 50 0.0 0.0 0.00 0.00 0.00 98 1015.6
20260510113523 50 0.0 0.0 0.00 0.00 0.00 98 1015.4
20260510112523 49 0.0 0.0 0.00 0.00 0.00 98 1015.2
20260510111523 49 0.0 0.0 0.00 0.00 0.00 98 1015.2
20260510110523 48 0.0 0.0 0.00 0.00 0.00 98 1015.1
20260510105523 48 0.0 0.0 0.00 0.00 0.00 97 1014.9
20260510104523 48 0.0 0.0 0.00 0.00 0.00 97 1014.8
20260510103544 48 0.0 0.0 0.00 0.00 0.00 97 1014.8
20260510102524 48 0.0 0.0 0.00 0.00 0.00 97 1014.8
20260510101524 49 0.0 0.0 0.00 0.00 0.00 97 1014.7
20260510100524 49 0.0 0.0 0.00 0.00 0.00 97 1014.6
20260510095524 49 0.0 0.0 0.00 0.00 0.00 97 1014.5
20260510094545 49 0.0 0.0 0.00 0.00 0.00 97 1014.3
20260510093526 49 0.0 0.0 0.00 0.00 0.00 97 1014.2
20260510092525 49 0.0 0.0 0.00 0.00 0.00 97 1014.2
20260510091545 49 0.0 0.0 0.00 0.00 0.00 97 1014.1
20260510090528 49 0.0 0.0 0.00 0.00 0.00 97 1014.1
20260510085525 49 0.0 0.0 0.00 0.00 0.00 97 1014.1
20260510084526 49 0.0 0.0 0.00 0.00 0.00 97 1014.0
20260510083526 49 0.0 0.0 0.00 0.00 0.00 97 1014.1
20260510082526 49 0.0 0.0 0.00 0.00 0.00 97 1014.1
20260510081519 50 0.0 0.0 0.00 0.00 0.00 97 1014.0
20260510080519 50 0.0 0.0 0.00 0.00 0.00 96 1013.7
20260510075519 50 0.0 0.0 0.00 0.00 0.00 96 1013.6
20260510074517 50 0.0 0.0 0.00 0.00 0.00 96 1013.5
20260510073540 50 0.0 0.0 0.00 0.00 0.00 96 1013.4
20260510072520 50 0.0 0.0 0.00 0.00 0.00 96 1013.4
20260510071600 50 0.0 0.0 0.00 0.00 0.00 96 1013.4
20260510070538 50 0.0 0.0 0.00 0.00 0.00 96 1013.3
20260510065518 50 0.0 0.0 0.00 0.00 0.00 96 1013.4
20260510064521 50 0.0 0.0 0.00 0.00 0.00 96 1013.3
20260510063518 51 0.0 0.0 0.00 0.00 0.00 96 1013.3
20260510062518 51 0.0 0.0 0.00 0.00 0.00 96 1013.4
20260510061518 51 0.0 0.0 0.00 0.00 0.00 96 1013.4
20260510060518 51 0.0 0.0 0.00 0.00 0.00 96 1013.4
20260510055516 52 0.0 0.0 0.00 0.00 0.00 96 1013.4
20260510054519 52 0.0 0.0 0.00 0.00 0.00 96 1013.3
20260510053519 52 0.0 0.0 0.00 0.00 0.00 96 1013.3
20260510052519 52 0.0 0.0 0.00 0.00 0.00 95 1013.3
20260510051519 52 0.0 0.0 0.00 0.00 0.00 95 1013.3
20260510050520 53 0.0 0.0 0.00 0.00 0.00 95 1013.2
20260510045519 53 0.0 0.0 0.00 0.00 0.00 95 1013.1
20260510044517 53 0.0 0.0 0.00 0.00 0.00 95 1013.1
20260510043520 53 0.0 0.0 0.00 0.00 0.00 94 1013.2
20260510041520 54 0.0 0.0 0.00 0.00 0.00 94 1013.1
20260510040558 54 0.0 0.0 0.00 0.00 0.00 94 1013.0
20260510035518 54 0.0 0.0 0.00 0.00 0.00 93 1013.0
20260510034558 55 0.0 0.0 0.00 0.00 0.00 92 1012.9
20260510033521 55 0.0 0.0 0.00 0.00 0.00 92 1012.9
20260510032518 56 250 0.0 0.9 0.00 0.00 0.00 91 1012.9
20260510031518 56 245 0.0 0.9 0.00 0.00 0.00 91 1012.8
20260510030518 57 0.0 0.0 0.00 0.00 0.00 90 1012.8
20260510025519 57 247 0.0 0.9 0.00 0.00 0.00 89 1012.6
20260510024519 58 0.0 0.0 0.00 0.00 0.00 87 1012.5
20260510023519 58 0.0 0.0 0.00 0.00 0.00 87 1012.4
20260510022519 59 0.0 0.0 0.00 0.00 0.00 86 1012.3
20260510021519 59 0.0 0.0 0.00 0.00 0.00 84 1012.1
20260510020517 60 0.0 0.0 0.00 0.00 0.00 84 1011.9
20260510015517 61 0.0 0.0 0.00 0.00 0.00 82 1011.7
20260510014520 61 0.0 0.0 0.00 0.00 0.00 79 1011.6
20260510013517 62 0.0 0.0 0.00 0.00 0.00 77 1011.5
20260510012517 64 0.0 0.0 0.00 0.00 0.00 75 1011.4
20260510011520 65 0.0 0.0 0.00 0.00 0.00 71 1011.2
20260510010541 66 0.0 0.0 0.00 0.00 0.00 70 1011.0
20260510005518 68 0.0 0.0 0.00 0.00 0.00 68 1010.9
20260510004518 69 0.0 0.0 0.00 0.00 0.00 65 1010.7
20260510003518 71 0.0 0.0 0.00 0.00 0.00 61 1010.6
20260510002518 73 0.0 0.0 0.00 0.00 0.00 58 1010.6
20260510001520 74 0.0 0.0 0.00 0.00 0.00 54 1010.5
20260510000519 76 0.0 0.0 0.00 0.00 0.00 51 1010.5
20260509235519 78 265 0.0 1.7 0.00 0.00 0.00 49 1010.4